RH
80 81 87 87 80 82 81 78 77 77 75 34 29 25 23 28 26 32 42 26 23 27 30 30 32 37 40 42 45 47 48 48 49 51 54 58 60 63 66 69 71 73 75
84 91 85 80 81 80 78 76 78 75 32 28 26 24 21 25 22 24 37 28 24 26 29 30 29 22 17 16 16 17 17 17 16 16 16 18 24 31 39 46 50 53 55
88 79 80 77 78 80 80 78 70 32 29 24 20 19 19 20 20 27 30 40 27 24 21 13 8 6 6 6 6 6 6 5 5 4 4 4 4 4 4 4 6 11 21
79 77 77 79 76 80 78 74 33 31 26 22 19 22 23 22 23 26 25 27 26 25 22 19 16 14 13 9 8 8 8 8 8 8 7 6 6 6 5 7 9 8 7
76 74 80 81 78 78 78 33 33 31 29 25 20 18 20 19 32 28 32 28 26 27 19 14 12 13 13 10 10 10 9 9 9 9 8 9 8 9 9 18 73 76 39
75 76 84 83 80 81 36 36 36 37 35 31 26 20 18 17 24 27 38 34 32 18 14 12 13 14 13 12 12 12 12 11 11 11 11 12 14 22 68 90 93 94 94
77 86 91 83 80 45 35 40 42 42 41 36 28 25 30 24 20 38 42 32 29 23 23 26 22 17 15 15 14 13 12 11 11 11 11 12 23 66 92 94 94 92 93
83 93 91 81 65 35 42 44 45 46 44 40 30 28 30 28 30 23 29 26 25 25 30 25 19 18 17 16 14 13 11 10 9 8 10 16 76 93 94 94 92 91 90
88 97 86 78 37 38 45 46 47 48 45 42 33 24 25 28 25 25 24 31 25 31 28 25 26 24 23 19 19 19 14 11 10 10 15 52 89 93 92 93 91 89 88
96 92 75 47 39 44 47 48 49 50 47 42 34 27 21 21 30 29 27 29 31 29 32 34 30 24 22 21 26 21 21 16 12 13 48 90 94 93 93 92 89 87 84
98 90 56 42 43 46 48 49 50 50 49 40 32 23 27 31 34 35 37 32 31 32 34 38 40 41 35 37 35 40 55 63 78 87 91 92 92 91 89 88 86 84 94
94 85 43 43 45 48 49 50 51 51 49 40 28 22 22 27 29 34 35 35 37 35 38 38 39 34 42 42 46 51 62 71 84 90 93 94 94 92 91 92 89 91 88
88 63 43 44 46 48 50 51 52 51 48 36 25 22 23 27 32 36 42 43 45 38 40 39 37 38 38 41 47 58 61 77 80 82 90 93 92 89 88 91 90 89 88
78 60 43 45 47 50 51 52 52 51 43 31 24 23 26 28 33 39 47 51 54 52 46 41 38 37 40 41 49 61 67 72 76 83 87 88 88 89 88 88 91 92 87
58 47 43 45 49 50 52 52 52 48 37 27 25 27 29 32 36 39 40 49 60 61 56 47 43 41 45 50 56 66 70 71 79 81 83 85 88 88 87 88 90 94 94
58 47 44 47 50 52 52 52 50 43 30 26 28 29 32 34 34 33 42 54 56 60 63 55 54 55 58 63 68 72 72 77 79 79 84 87 84 84 86 91 94 97 94
51 44 45 49 51 52 52 51 45 34 27 28 30 35 35 32 33 39 40 48 56 60 64 65 71 72 74 76 76 75 79 73 77 75 76 79 84 89 91 93 95 95 98
44 45 47 50 52 52 52 47 37 28 26 30 35 37 34 40 43 43 54 60 63 66 73 76 78 80 82 78 81 87 80 89 72 69 73 81 87 90 92 95 95 98 96
44 47 49 51 52 53 50 41 28 26 29 36 38 36 40 46 53 57 65 71 76 81 80 78 82 82 82 84 89 94 75 73 68 72 78 82 88 92 95 92 93 94 94
46 49 51 52 53 51 44 31 25 29 36 38 41 49 51 57 63 68 72 82 88 85 87 89 85 79 92 97 91 76 71 73 81 81 81 77 88 89 91 89 93 96 98
49 50 51 52 52 49 35 25 32 36 32 37 41 49 60 64 65 83 93 92 92 89 88 82 94 99 100 89 80 76 80 91 76 86 98 59 89 74 72 85 90 95 96
50 51 52 52 50 34 25 32 36 29 21 26 49 49 59 67 71 79 89 89 91 91 96 96 100 99 91 89 81 88 83 100 98 81 95 81 74 72 81 77 91 95 98
50 51 52 52 38 25 33 37 29 18 16 34 48 64 71 73 79 84 87 89 90 93 98 95 95 92 88 87 80 89 96 100 96 84 94 92 70 77 76 69 76 97 97
52 52 70 32 26 37 37 28 18 15 22 44 65 71 77 78 82 85 88 95 85 82 83 87 86 89 85 90 97 98 97 93 83 77 100 98 82 79 83 81 61 58 59
78 56 28 28 39 37 30 17 16 16 29 59 67 72 74 81 80 88 89 90 89 90 82 83 91 97 100 97 95 94 89 91 96 83 96 100 93 98 81 66 63 73 69
37 26 32 40 38 28 18 16 17 18 57 72 73 76 77 79 85 89 92 98 91 90 88 89 90 88 93 89 98 94 96 98 96 96 86 98 95 100 96 85 76 66 59
Wind_Speed
11 9 11 8 6 4 4 8 8 11 13 13 15 15 13 10 10 8 13 12 10 11 13 12 11 12 13 13 15 15 17 17 18 18 19 20 20 20 20 19 19 19 20
13 14 11 9 7 5 7 8 11 13 13 14 14 14 12 9 9 9 6 13 11 11 13 13 12 13 14 14 16 17 18 20 20 21 21 22 23 24 25 26 26 25 25
18 12 10 7 7 8 9 9 11 11 13 13 12 13 11 10 9 8 7 8 12 10 11 12 11 12 13 15 17 18 21 22 24 24 24 24 24 24 24 25 26 28 29
13 11 12 10 7 9 10 10 9 10 11 12 12 10 11 11 9 8 9 8 9 10 13 13 16 19 19 18 19 21 23 24 25 25 25 26 26 26 26 26 27 29 30
15 14 13 10 9 10 10 7 7 8 9 11 11 10 12 12 9 8 7 10 12 14 14 18 17 19 19 20 22 22 23 24 24 26 26 26 26 26 26 25 25 25 30
17 16 15 13 10 9 8 5 6 7 8 10 11 9 12 8 7 7 7 9 10 16 17 19 19 18 22 25 24 24 24 24 25 26 27 28 27 25 24 23 23 24 26
20 19 17 15 11 10 7 5 5 7 9 11 10 9 8 10 9 8 9 7 12 15 16 13 18 20 22 23 24 26 24 25 26 27 28 28 27 24 23 24 25 27 28
23 21 19 16 13 10 7 5 5 8 10 11 10 8 3 5 6 6 8 18 10 14 12 18 22 22 21 24 24 23 26 26 26 27 27 27 26 25 27 28 29 30 31
25 23 20 17 14 11 7 5 5 6 9 11 10 4 3 3 14 7 10 10 14 13 19 24 24 23 23 27 22 24 27 27 27 27 30 30 28 28 30 30 31 32 34
29 25 21 19 15 11 8 5 6 7 8 10 11 9 5 8 3 8 4 11 16 18 21 24 26 25 28 22 23 27 26 29 31 33 31 28 29 30 31 31 33 35 36
29 25 23 19 15 12 8 6 7 8 9 9 10 10 8 9 8 10 20 13 20 20 23 22 22 28 24 22 26 24 20 25 28 29 30 30 29 31 32 33 34 36 36
30 25 24 20 16 12 8 7 8 9 10 11 11 12 10 8 9 11 18 24 25 26 21 25 24 24 22 25 25 21 23 28 31 29 29 30 31 32 33 34 35 35 36
30 24 24 20 16 12 9 8 8 10 11 12 13 12 13 13 14 15 17 23 26 30 27 22 21 23 24 27 25 23 32 30 29 31 31 31 33 34 36 36 36 35 37
29 26 24 20 15 11 9 8 9 11 13 14 14 14 15 16 16 17 19 21 27 26 25 22 25 24 23 25 31 29 33 30 31 32 32 34 36 36 36 36 36 36 37
27 25 22 18 14 10 9 8 10 12 13 14 15 16 17 17 19 20 21 21 21 26 29 24 21 14 27 31 30 30 34 33 31 33 35 35 36 36 37 37 37 37 37
24 23 21 16 12 9 8 9 11 12 13 15 16 17 18 19 20 22 21 21 22 25 33 28 28 27 28 30 32 31 33 31 33 35 37 35 36 36 36 36 36 37 37
24 22 19 14 10 8 8 10 12 13 14 15 17 18 20 21 22 22 22 23 23 24 31 34 30 28 30 32 32 32 33 39 38 36 36 35 34 34 35 36 36 37 38
23 20 16 12 9 8 9 11 13 14 15 17 18 20 21 19 22 23 21 21 24 26 29 36 32 33 32 32 34 35 34 34 39 32 32 34 35 36 36 36 36 37 37
21 17 13 10 7 8 10 12 13 15 17 18 19 20 21 20 22 22 21 23 24 26 29 33 37 33 34 35 36 30 39 30 33 33 34 35 36 37 35 35 36 36 37
17 13 10 7 7 9 11 13 15 17 18 19 19 20 21 22 22 21 24 24 24 28 29 32 37 41 37 35 30 35 34 33 34 37 37 40 35 35 34 36 37 37 36
12 9 7 6 7 10 13 14 16 18 19 19 20 20 20 21 25 23 22 24 27 30 33 37 38 38 35 36 36 31 35 35 44 38 34 40 32 43 42 38 36 34 32
10 7 6 6 8 12 14 16 17 19 20 20 21 21 21 21 20 20 22 23 24 29 34 37 40 35 41 34 33 34 43 39 38 42 29 44 41 44 43 41 35 34 35
8 5 5 7 11 13 14 17 19 20 21 19 21 21 20 19 21 22 23 23 26 29 28 33 38 34 35 36 41 42 41 39 47 47 41 40 43 47 42 41 40 35 36
5 3 8 9 11 14 15 17 19 21 20 19 19 20 21 22 21 23 27 30 33 33 30 30 32 34 37 38 37 37 39 43 43 42 33 36 46 44 42 45 44 31 25
4 6 8 9 12 13 18 18 20 21 20 18 17 19 21 22 22 22 28 34 35 35 32 26 28 31 32 32 31 31 34 38 41 46 39 37 36 39 49 48 40 33 36
5 6 8 11 13 14 17 19 20 21 18 17 18 20 19 21 21 25 29 34 37 35 32 33 34 33 29 29 25 25 30 34 39 47 38 31 42 34 33 38 37 45 40
Wind_Direction
185 180 198 193 216 224 256 284 291 307 307 312 313 314 314 309 303 292 284 295 284 279 280 289 294 292 295 298 297 297 297 297 295 293 291 291 289 288 288 285 281 278 276
187 191 196 235 221 257 261 269 290 301 307 313 314 315 313 306 306 290 251 289 283 280 284 291 293 294 296 299 299 301 301 300 298 297 295 292 289 287 286 284 282 278 275
205 211 215 221 247 256 255 276 292 302 314 320 321 319 315 304 301 287 274 252 292 280 283 290 295 300 303 305 304 304 304 302 300 300 299 296 294 292 289 286 283 280 279
204 213 216 223 256 256 263 277 295 316 327 326 328 317 315 309 295 273 272 269 267 282 295 288 294 297 298 303 305 305 303 302 299 297 295 293 293 291 289 286 284 283 281
207 209 217 224 232 245 255 270 304 322 329 329 330 321 306 300 275 263 257 273 283 281 292 297 305 302 300 301 304 303 302 300 299 297 298 294 293 290 288 287 285 286 284
207 213 215 222 233 237 243 272 309 327 336 339 335 326 316 310 278 268 260 281 292 297 293 299 306 310 310 311 312 309 307 303 301 300 299 299 298 295 293 291 288 287 287
212 211 213 219 224 218 238 269 305 329 338 347 353 338 324 322 308 274 279 283 286 302 298 304 305 304 308 307 308 306 304 302 300 299 299 298 299 299 296 293 289 287 286
210 211 215 217 212 218 231 257 307 327 338 353 1 9 330 278 324 312 278 283 292 285 292 295 297 303 302 304 304 301 300 298 299 298 298 297 298 298 294 291 289 286 285
209 209 211 217 206 217 229 257 302 333 335 342 355 15 329 297 296 305 299 278 292 289 291 300 305 304 304 307 302 301 301 300 302 302 302 300 300 297 295 292 289 286 284
204 205 207 207 207 217 229 259 301 326 339 331 340 336 306 275 301 305 267 294 290 288 303 298 299 302 304 302 298 301 300 299 301 306 308 306 302 298 295 291 288 284 282
200 208 203 201 207 219 234 266 297 319 329 324 325 320 309 306 290 271 294 294 286 290 287 296 293 299 301 295 297 295 293 295 305 306 305 303 301 299 296 293 290 286 283
200 205 197 202 209 221 239 269 296 315 321 321 319 315 306 296 278 281 285 290 295 301 297 290 293 306 300 301 298 294 292 299 303 304 303 302 300 298 295 292 289 286 283
198 200 199 202 212 223 244 273 297 312 317 318 313 306 299 298 291 288 286 289 293 298 303 299 293 295 291 285 292 294 292 303 304 303 303 302 299 297 295 292 289 287 283
197 200 198 204 214 227 250 277 298 309 314 312 308 304 301 298 295 292 288 292 299 297 294 295 290 293 281 292 294 300 296 302 302 301 301 299 298 298 297 295 291 289 287
197 193 198 206 216 232 256 284 299 309 311 306 303 304 303 301 296 295 294 292 289 296 298 301 300 276 287 291 296 295 296 304 300 298 298 297 296 297 295 293 291 290 288
192 194 199 207 219 239 265 287 300 304 304 301 300 300 297 297 296 295 295 288 283 283 287 291 295 294 294 294 292 299 302 299 293 295 297 297 295 294 293 293 291 290 288
192 191 199 208 224 249 277 294 299 300 302 299 298 299 299 300 299 296 293 293 289 287 287 293 295 299 297 299 303 302 294 293 300 298 296 295 296 296 295 292 291 288 286
187 193 200 211 231 262 285 295 299 301 300 298 298 297 298 297 293 298 298 292 291 291 292 295 299 301 303 305 304 295 301 300 301 301 300 298 298 297 294 293 291 288 286
189 193 202 218 245 274 289 295 297 298 298 299 299 297 295 294 297 298 292 294 295 296 295 296 300 303 302 304 305 307 305 303 298 296 301 298 300 298 298 296 292 289 287
186 192 207 231 261 283 294 297 298 302 303 300 297 296 296 296 298 294 291 295 299 299 300 300 300 304 305 307 308 308 304 303 302 303 306 308 301 298 298 296 293 290 289
186 202 218 247 277 294 295 300 303 303 301 298 296 297 296 292 292 297 297 301 301 301 301 302 302 302 305 310 309 307 304 303 306 312 299 313 303 305 310 306 298 295 293
194 211 237 272 292 293 299 303 304 305 304 301 298 296 296 297 297 293 297 297 298 301 301 301 301 302 304 304 304 304 305 307 304 307 306 306 312 311 309 310 301 295 293
197 221 262 294 291 296 304 305 307 310 308 304 300 299 298 297 297 298 299 299 297 300 296 298 298 298 298 297 299 305 307 302 300 301 305 303 312 308 313 314 314 301 295
202 251 285 286 299 300 306 310 312 313 310 305 298 296 298 303 301 306 307 306 307 305 307 299 294 295 295 299 303 303 300 297 301 304 302 293 308 309 315 309 315 316 313
254 267 284 299 302 307 311 313 313 315 311 304 300 299 302 303 304 305 306 306 307 304 304 297 292 296 299 298 295 298 298 302 299 304 305 300 306 301 312 314 321 321 317
251 284 297 304 308 307 305 315 316 316 312 306 305 302 304 304 305 306 307 308 306 305 304 307 307 305 301 301 301 296 297 293 293 300 310 302 305 309 309 307 309 315 318